Location: Bruderhein
(53.8035°N, 112.9265°W)
Time: 03:22:39
(UTC+00:00)

KKS-1 - Pass Details

Date: 02 April 2023
Orbit: 633 x 644 km, 98.2° (Epoch: 31 May)

Event Time Altitude Azimuth Distance (km) Brightness Sun altitude
Rises 04:49:16 0° 28° (NNE) 2,944 ? -21.9°
Reaches altitude 10° 04:52:28 10° 53° (NE) 2,029 ? -22.2°
Enters shadow 04:52:42 11° 56° (NE) 1,978 ? -22.2°
